• In Austria
  • List of Countries
  • For 7 days
  • Water Temperature
  • Satellite Maps
  • Weather Map
  • News
  • Weather Widgets
  • user-avatar
    Login

    Hourly Weather Brzeszcze

    Today, 18 September, Tuesday

    Time Temperature Precipitation Wind Pressure Humidity
    00:00 +16°C° 0 mm 2 mps 744 mmHg 79%
    01:00 +16°C° 0 mm 2 mps 743 mmHg 80%
    02:00 +16°C° 0 mm 2 mps 743 mmHg 80%
    03:00 +16°C° 0 mm 2 mps 743 mmHg 80%
    04:00 +16°C° 0 mm 2 mps 743 mmHg 80%
    05:00 +16°C° 0 mm 2 mps 743 mmHg 77%
    06:00 +17°C° 0 mm 2 mps 743 mmHg 73%
    07:00 +18°C° 0 mm 2 mps 744 mmHg 66%
    08:00 +20°C° 0 mm 2 mps 744 mmHg 59%
    09:00 +23°C° 0 mm 2 mps 744 mmHg 53%
    10:00 +25°C° 0 mm 3 mps 744 mmHg 46%
    11:00 +26°C° 0 mm 3 mps 744 mmHg 44%
    12:00 +27°C° 0 mm 3 mps 743 mmHg 42%
    13:00 +28°C° 0 mm 3 mps 743 mmHg 40%
    14:00 +28°C° 0 mm 3 mps 743 mmHg 42%
    15:00 +28°C° 0 mm 2 mps 742 mmHg 44%
    16:00 +27°C° 0 mm 2 mps 742 mmHg 46%
    17:00 +25°C° 0 mm 2 mps 742 mmHg 52%
    18:00 +23°C° 0 mm 2 mps 742 mmHg 58%
    19:00 +20°C° 0 mm 2 mps 742 mmHg 64%
    20:00 +19°C° 0 mm 2 mps 743 mmHg 66%
    21:00 +19°C° 0 mm 2 mps 743 mmHg 67%
    22:00 +18°C° 0 mm 2 mps 743 mmHg 69%
    23:00 +18°C° 0 mm 2 mps 743 mmHg 69%

    Tomorrow, 19 September, Wednesday

    Time Temperature Precipitation Wind Pressure Humidity
    00:00 +17°C° 0 mm 2 mps 743 mmHg 69%
    01:00 +17°C° 0 mm 2 mps 743 mmHg 70%
    02:00 +16°C° 0 mm 2 mps 743 mmHg 69%
    03:00 +16°C° 0 mm 2 mps 743 mmHg 68%
    04:00 +16°C° 0 mm 2 mps 743 mmHg 68%
    05:00 +17°C° 0 mm 2 mps 743 mmHg 66%
    06:00 +17°C° 0 mm 2 mps 743 mmHg 63%
    07:00 +18°C° 0 mm 2 mps 743 mmHg 61%
    08:00 +20°C° 0 mm 2 mps 743 mmHg 54%
    09:00 +24°C° 0 mm 3 mps 743 mmHg 47%
    10:00 +26°C° 0 mm 3 mps 744 mmHg 40%
    11:00 +27°C° 0 mm 3 mps 744 mmHg 38%
    12:00 +28°C° 0 mm 3 mps 744 mmHg 37%
    13:00 +28°C° 0 mm 3 mps 743 mmHg 35%
    14:00 +28°C° 0 mm 2 mps 743 mmHg 37%
    15:00 +28°C° 0 mm 2 mps 743 mmHg 40%
    16:00 +27°C° 0 mm 2 mps 743 mmHg 42%
    17:00 +25°C° 0 mm 2 mps 743 mmHg 47%
    18:00 +23°C° 0 mm 1 mps 743 mmHg 53%
    19:00 +21°C° 0 mm 1 mps 743 mmHg 58%
    20:00 +21°C° 0 mm 1 mps 743 mmHg 60%
    21:00 +19°C° 0 mm 2 mps 744 mmHg 62%
    22:00 +19°C° 0 mm 2 mps 744 mmHg 64%
    23:00 +18°C° 0 mm 2 mps 744 mmHg 65%

    Day after tomorrow, 20 September, Thursday

    Time Temperature Precipitation Wind Pressure Humidity
    00:00 +18°C° 0 mm 2 mps 744 mmHg 66%
    01:00 +17°C° 0 mm 2 mps 744 mmHg 67%
    02:00 +17°C° 0 mm 2 mps 743 mmHg 68%
    03:00 +17°C° 0 mm 2 mps 743 mmHg 68%
    04:00 +17°C° 0 mm 2 mps 743 mmHg 68%
    05:00 +17°C° 0 mm 2 mps 743 mmHg 67%
    06:00 +18°C° 0 mm 2 mps 743 mmHg 66%
    07:00 +19°C° 0 mm 2 mps 743 mmHg 64%
    08:00 +21°C° 0 mm 2 mps 743 mmHg 57%
    09:00 +24°C° 0 mm 2 mps 744 mmHg 50%
    10:00 +26°C° 0 mm 2 mps 744 mmHg 42%
    11:00 +27°C° 0 mm 2 mps 743 mmHg 40%
    12:00 +28°C° 0 mm 2 mps 743 mmHg 38%
    13:00 +29°C° 0 mm 2 mps 743 mmHg 37%
    14:00 +28°C° 0 mm 2 mps 743 mmHg 39%
    15:00 +28°C° 0 mm 1 mps 742 mmHg 41%
    16:00 +28°C° 0 mm 1 mps 742 mmHg 43%
    17:00 +26°C° 0 mm 1 mps 742 mmHg 49%
    18:00 +24°C° 0 mm 1 mps 742 mmHg 54%
    19:00 +22°C° 0 mm 1 mps 742 mmHg 60%
    20:00 +21°C° 0 mm 1 mps 742 mmHg 62%
    21:00 +19°C° 0 mm 2 mps 742 mmHg 65%
    22:00 +19°C° 0 mm 2 mps 741 mmHg 67%
    23:00 +19°C° 0 mm 2 mps 741 mmHg 68%

    21 September, Friday

    Time Temperature Precipitation Wind Pressure Humidity
    00:00 +18°C° 0 mm 2 mps 741 mmHg 69%
    01:00 +18°C° 0 mm 2 mps 741 mmHg 70%
    02:00 +18°C° 0 mm 2 mps 740 mmHg 70%
    03:00 +17°C° 0 mm 2 mps 740 mmHg 70%
    04:00 +17°C° 0 mm 2 mps 740 mmHg 70%
    05:00 +18°C° 0 mm 2 mps 740 mmHg 68%
    06:00 +18°C° 0 mm 2 mps 740 mmHg 66%
    07:00 +19°C° 0 mm 2 mps 740 mmHg 63%
    08:00 +21°C° 0 mm 3 mps 740 mmHg 55%
    09:00 +25°C° 0 mm 4 mps 739 mmHg 46%
    10:00 +27°C° 0 mm 4 mps 739 mmHg 37%
    11:00 +28°C° 0 mm 5 mps 739 mmHg 35%
    12:00 +29°C° 0 mm 5 mps 738 mmHg 34%
    13:00 +29°C° 0 mm 6 mps 738 mmHg 33%
    14:00 +29°C° 0 mm 5 mps 738 mmHg 35%
    15:00 +28°C° 0 mm 5 mps 737 mmHg 38%
    16:00 +28°C° 0 mm 4 mps 737 mmHg 40%
    17:00 +26°C° 0 mm 4 mps 736 mmHg 45%
    18:00 +23°C° 0 mm 4 mps 736 mmHg 50%
    19:00 +21°C° 0 mm 3 mps 736 mmHg 55%
    20:00 +21°C° 0 mm 3 mps 735 mmHg 54%
    21:00 +20°C° 0 mm 3 mps 735 mmHg 52%
    22:00 +20°C° 0 mm 3 mps 735 mmHg 51%
    23:00 +20°C° 0 mm 3 mps 735 mmHg 52%

    22 September, Saturday

    Time Temperature Precipitation Wind Pressure Humidity
    00:00 +20°C° 0 mm 3 mps 735 mmHg 52%
    01:00 +19°C° 0 mm 4 mps 736 mmHg 52%
    02:00 +18°C° 0.9 mm 4 mps 736 mmHg 62%
    03:00 +15°C° 0.9 mm 5 mps 737 mmHg 72%
    04:00 +14°C° 0.9 mm 5 mps 738 mmHg 81%
    05:00 +13°C° 1.3 mm 5 mps 739 mmHg 82%
    06:00 +12°C° 1.3 mm 5 mps 740 mmHg 83%
    07:00 +10°C° 1.3 mm 5 mps 741 mmHg 84%
    08:00 +10°C° 0.4 mm 5 mps 741 mmHg 81%
    09:00 +11°C° 0.4 mm 4 mps 742 mmHg 79%
    10:00 +11°C° 0.4 mm 4 mps 742 mmHg 76%
    11:00 +12°C° 0 mm 4 mps 743 mmHg 70%
    12:00 +13°C° 0 mm 4 mps 743 mmHg 63%
    13:00 +13°C° 0 mm 4 mps 743 mmHg 56%
    14:00 +14°C° 0 mm 4 mps 743 mmHg 55%
    15:00 +14°C° 0 mm 4 mps 743 mmHg 53%
    16:00 +14°C° 0 mm 4 mps 743 mmHg 51%
    17:00 +13°C° 0 mm 3 mps 743 mmHg 58%
    18:00 +12°C° 0 mm 3 mps 743 mmHg 64%
    19:00 +10°C° 0 mm 2 mps 744 mmHg 70%
    20:00 +10°C° 0 mm 2 mps 744 mmHg 71%
    21:00 +10°C° 0 mm 2 mps 744 mmHg 73%
    22:00 +9°C° 0 mm 2 mps 744 mmHg 75%
    23:00 +9°C° 0 mm 2 mps 744 mmHg 76%

    23 September, Sunday

    Time Temperature Precipitation Wind Pressure Humidity
    00:00 +9°C° 0 mm 2 mps 744 mmHg 77%
    01:00 +8°C° 0 mm 2 mps 744 mmHg 78%
    02:00 +8°C° 0 mm 2 mps 744 mmHg 79%
    03:00 +8°C° 0 mm 2 mps 744 mmHg 79%
    04:00 +8°C° 0 mm 2 mps 744 mmHg 79%
    05:00 +8°C° 0 mm 2 mps 744 mmHg 76%
    06:00 +9°C° 0 mm 2 mps 744 mmHg 74%
    07:00 +10°C° 0 mm 3 mps 745 mmHg 71%
    08:00 +11°C° 0 mm 3 mps 744 mmHg 63%
    09:00 +13°C° 0 mm 3 mps 744 mmHg 56%
    10:00 +15°C° 0 mm 4 mps 744 mmHg 49%
    11:00 +17°C° 0 mm 4 mps 743 mmHg 46%
    12:00 +18°C° 0 mm 4 mps 743 mmHg 43%
    13:00 +18°C° 0 mm 4 mps 742 mmHg 41%
    14:00 +18°C° 0 mm 4 mps 741 mmHg 42%
    15:00 +18°C° 0 mm 4 mps 740 mmHg 43%
    16:00 +18°C° 0 mm 4 mps 740 mmHg 45%
    17:00 +15°C° 0 mm 4 mps 739 mmHg 50%
    18:00 +14°C° 0 mm 4 mps 738 mmHg 55%
    19:00 +12°C° 0 mm 3 mps 738 mmHg 59%
    20:00 +12°C° 0.2 mm 4 mps 737 mmHg 61%
    21:00 +12°C° 0.2 mm 4 mps 736 mmHg 63%
    22:00 +12°C° 0.2 mm 5 mps 735 mmHg 65%
    23:00 +12°C° 0.1 mm 5 mps 734 mmHg 63%
    Show more